#timestamp,LO_Frequency,Hit 
1497877215.2,286046966.3,N
1497877235.0,286046968.8,N
1497877235.9,286046968.8,N
1497877255.8,286046966.6,N
1497877275.6,286046966.7,N
1497877295.5,286046966.6,N
1497877315.3,286046966.9,N
1497877335.1,286046967.0,N
1497877355.9,286046965.4,N
1497877375.7,286046964.7,N
1497877395.5,286046966.7,N
1497877415.4,286046966.5,N
1497877435.2,286046968.6,N
1497877455.1,286046969.1,N
1497877456.0,286046969.1,N
1497877475.8,286046967.3,N
1497877495.6,286046965.0,N
1497877515.5,286046966.2,N
1497877535.3,286046969.2,N
1497877555.1,286046969.1,N
1497877575.9,286046964.5,N
1497877595.7,286046964.5,N
1497877615.6,286046967.1,N
1497877635.4,286046966.8,N
1497877655.2,286046966.4,N
1497877675.1,286046966.4,N
1497877676.0,286046966.4,N
1497877695.8,286046966.3,N
1497877715.7,286046966.2,N
1497877735.5,286046964.5,N
1497877755.3,286046967.5,N
1497877775.2,286046967.5,N
1497877795.9,286046967.5,N
1497877815.7,286046966.3,N
1497877835.6,286046967.1,N
1497877855.4,286046966.9,N
1497877875.3,286046967.1,N
1497877895.1,286046967.3,N
1497877896.0,286046967.3,N
1497877915.8,286046964.9,N
1497877935.7,286046968.7,N
1497877955.5,286046969.1,N
1497877975.3,286046964.9,N
1497877995.2,286046965.5,N
1497878015.0,286046965.4,N
1497878015.9,286046965.4,N
1497878035.8,286046965.4,N
1497878055.6,286046964.7,N
1497878075.4,286046967.5,N
1497878095.3,286046966.9,N
1497878115.1,286046966.8,N
1497878135.9,286046967.4,N
1497878155.7,286046967.3,N
1497878205.6,286046964.5,Y
1497878215.5,286046980.6,N
1497878235.3,286047000.3,N
1497878255.2,286047002.4,N
1497878275.9,286047001.7,N
1497878295.7,286047001.4,N
1497878315.6,286047002.2,N
1497878335.4,286047002.2,N
1497878355.2,286047002.2,N
1497878375.1,286047001.3,N
1497878376.0,286047001.3,N
1497878395.8,286047004.4,N
1497878415.7,286047001.7,N
1497878435.5,286047001.3,N
1497878455.3,286047001.4,N
1497878475.2,286047004.2,N
1497878495.0,286047001.7,N
1497878495.9,286047001.7,N
1497878515.7,286047001.3,N
1497878535.6,286047001.8,N
1497878555.4,286047004.3,N
1497878575.3,286047001.8,N
1497878595.1,286047001.4,N
1497878596.0,286047001.4,N
1497878615.8,286047001.5,N
1497878635.7,286047002.5,N
1497878655.5,286047001.3,N
1497878675.4,286047001.6,N
1497878695.2,286047001.6,N
1497878715.0,286047001.8,N
1497878715.9,286047001.8,N
1497878735.8,286047001.9,N
1497878755.6,286047004.3,N
1497878775.4,286047001.7,N
1497878795.3,286047004.4,N
1497878815.1,286047001.6,N
1497878835.9,286047002.5,N
1497878855.7,286047001.6,N
1497878875.5,286047002.2,N
1497878895.4,286047001.6,N
1497878915.2,286047004.4,N
1497878935.0,286047003.7,N
1497878935.9,286047003.7,N
1497878955.8,286047001.8,N
1497878975.6,286047002.2,N
1497878995.5,286047002.1,N
1497879015.3,286047002.0,N
1497879035.1,286047002.5,N
1497879055.9,286047001.7,N
1497879075.7,286047001.3,N
1497879095.5,286047002.1,N
1497879115.4,286047001.9,N
1497879135.2,286047004.3,N
1497879155.1,286047004.4,N
1497879156.0,286047004.4,N
1497879175.8,286047001.8,N
1497879195.6,286047001.8,N
1497879215.5,286047002.0,N
1497879235.3,286047001.3,N
1497879255.1,286047002.3,N
1497879275.9,286047000.2,N
1497879295.7,286047002.3,N
1497879315.6,286047002.5,N
1497879335.4,286047002.6,N
1497879355.2,286047004.3,N
1497879375.1,286047001.8,N
1497879376.0,286047001.8,N
1497879395.8,286047001.3,N
1497879415.7,286047001.4,N
1497879435.5,286047001.3,N
1497879455.3,286047001.4,N
1497879475.2,286047002.0,N
1497879495.9,286047002.4,N
1497879515.7,286047002.5,N
1497879535.6,286047002.4,N
1497879555.4,286047002.2,N
1497879575.2,286047000.1,N
1497879595.1,286047000.2,N
1497879596.0,286047000.2,N
1497879615.8,286047000.9,N
1497879635.7,286047001.2,N
1497879655.5,286047000.5,N
1497879675.3,286046999.7,N
1497879695.2,286047002.7,N
1497879715.0,286047002.2,N
1497879715.9,286047002.2,N
1497879735.7,286047002.1,N
1497879755.6,286047002.5,N
1497879775.4,286047002.6,N
1497879795.3,286047002.2,N
1497879815.1,286047002.6,N
1497879816.0,286047002.6,N
1497879835.8,286046999.9,N
1497879855.7,286046999.9,N
1497879875.5,286046999.7,N
1497879895.3,286047001.7,N
1497879915.2,286047001.3,N
1497879935.0,286047002.0,N
1497879935.9,286047002.0,N
1497879955.8,286047002.2,N
1497879975.6,286047001.7,N
1497879995.4,286047002.5,N
1497880015.3,286047001.6,N
1497880035.1,286047001.3,N
1497880055.8,286047004.4,N
1497880075.7,286047004.2,N
1497880095.5,286047003.8,N
1497880115.4,286047004.4,N
1497880135.2,286047002.5,N
1497880155.0,286047001.6,N
1497880155.9,286047001.6,N
1497880175.8,286047002.1,N
1497880195.6,286047001.3,N
1497880215.4,286047001.3,N
1497880235.3,286047003.0,N
1497880255.1,286047011.9,N
1497880275.9,286047002.1,N
1497880295.7,286047001.7,N
1497880315.5,286047004.4,N
1497880335.4,286047001.7,N
1497880355.6,286047004.0,N
1497880375.5,286047001.3,N
1497880395.3,286047003.9,N
1497880415.2,286047003.6,N
1497880435.9,286047003.9,N
1497880455.7,286047001.7,N
1497880475.6,286047001.3,N
1497880495.4,286047001.9,N
1497880515.2,286047001.9,N
1497880535.1,286047003.7,N
1497880536.0,286047003.7,N
1497880555.8,286047004.2,N
1497880575.7,286047004.2,N
1497880595.5,286047001.3,N
1497880615.3,286047001.3,N
1497880635.2,286047004.3,N
1497880655.0,286047004.4,N
1497880655.9,286047004.4,N
1497880675.7,286047001.5,N
1497880695.6,286047004.1,N
1497880715.4,286047001.6,N
1497880735.3,286047001.7,N
1497880755.1,286047004.3,N
1497880756.0,286047004.3,N
1497880775.8,286047001.5,N
1497880795.7,286047004.4,N
